User: anonymous   Login
Location: Theydon Bois
(51.6750°N, 0.1050°E)
Time: 11:00:53
(UTC+00:00)
Language:

SL-16 R/B - Orbit

View from above orbital plane
View from above orbital plane
View from above satellite
View from above satellite

Ground track
Ground track

The orbit data is extracted from the following two-line orbital elements,

1 28353U 04021B   18052.90444104 -.00000215 +00000-0 -87771-4 0  9994
2 28353 070.9993 274.7625 0005641 207.1917 152.8910 14.14208649707454
Epoch (UTC): 21 February 2018 21:42:23
Eccentricity: 0.0005641
inclination: 70.9993°
perigee height: 841 km
apogee height: 849 km
right ascension of ascending node: 274.7625°
argument of perigee: 207.1917°
revolutions per day: 14.14208649
mean anomaly at epoch: 152.8910°
orbit number at epoch: 70745

The dashed part of the orbit path shows where the satellite is in the earth's shadow,  

DLR